Wind_Speed
6 7 7 7 7 7 7 7 7 8 8 8 8 8 8 9 9 10 10 10 10 11 12 12 12 13 13 13 13 14 15 15 17 17 17 17 16 16 16 16 16 17 16
7 7 8 8 8 9 9 9 9 9 9 9 10 10 9 9 9 10 10 10 11 13 13 13 13 13 13 14 14 14 15 15 15 15 15 16 16 16 16 16 17 17 17
8 8 8 9 9 10 10 10 10 11 11 11 11 10 10 11 11 11 12 12 12 13 13 13 13 14 14 15 15 14 15 15 15 15 15 16 16 16 17 18 18 18 18
8 8 9 9 10 10 11 11 11 11 11 12 12 13 13 13 13 13 13 13 13 13 13 13 13 13 13 14 14 13 13 14 15 15 16 17 17 17 17 18 19 19 19
8 9 9 10 10 10 10 11 11 12 12 13 13 13 13 14 14 14 14 14 14 14 13 14 14 14 13 13 14 14 14 15 16 16 16 17 17 17 18 18 19 19 19
9 9 10 10 10 11 11 11 12 12 12 13 13 13 13 14 14 14 14 14 14 14 13 14 14 14 14 14 14 14 14 15 15 16 16 17 18 18 18 19 19 19 19
10 10 10 10 11 11 12 12 13 13 13 13 13 13 14 14 14 14 15 15 14 14 14 14 15 14 14 14 14 14 15 15 16 16 16 17 17 18 19 19 19 19 20
11 11 11 11 11 12 12 13 13 14 14 14 14 14 14 14 15 15 15 15 15 15 15 15 16 16 16 15 15 15 15 16 16 16 17 18 18 18 19 19 19 19 20
11 12 12 12 12 12 13 13 13 13 13 14 14 14 14 14 14 14 15 15 15 16 16 16 16 17 16 17 16 16 16 16 16 16 16 17 18 19 19 20 20 20 20
12 13 13 13 13 13 13 14 13 13 14 14 14 14 14 14 14 14 15 16 16 16 16 16 16 17 17 17 18 18 18 17 17 16 17 17 18 19 20 20 20 20 19
13 13 13 13 14 14 14 14 14 14 14 15 15 15 15 15 15 15 15 16 16 17 17 17 17 17 18 19 19 19 18 18 18 17 18 18 18 18 19 19 19 19 19
14 13 13 14 14 14 14 15 15 15 15 15 15 15 15 15 15 16 16 16 16 17 17 18 18 18 19 19 19 19 18 18 18 18 18 18 18 18 19 19 19 19 19
15 15 14 14 14 15 15 15 15 16 16 16 16 16 16 16 16 16 16 17 17 18 18 18 19 19 19 20 19 19 19 19 18 18 18 18 18 19 19 19 19 19 20
16 15 15 15 15 15 15 16 16 16 16 16 16 16 16 17 17 17 17 17 17 18 19 20 20 19 20 20 20 20 20 20 20 19 20 20 20 19 19 19 20 20 20
16 16 16 15 16 16 16 16 16 16 17 17 17 18 18 18 18 18 18 18 18 18 18 19 20 21 21 21 21 21 21 21 21 21 21 21 21 20 20 20 20 20 20
16 17 17 17 17 17 17 17 17 17 18 18 18 18 18 18 19 19 19 19 19 18 18 19 20 20 21 22 22 21 22 22 22 22 22 22 22 22 21 21 21 20 20
18 18 17 17 17 17 18 18 18 18 19 18 18 18 18 18 18 19 19 19 19 19 19 19 20 21 21 22 22 22 22 22 22 23 23 23 23 23 23 23 22 22 22
18 18 18 18 18 18 18 18 19 19 19 18 18 18 18 18 18 18 19 19 19 19 19 19 20 21 22 22 22 22 22 22 23 23 23 23 23 24 24 24 23 23 22
19 19 19 19 19 19 19 19 20 19 19 18 18 18 18 18 19 19 19 20 20 20 20 20 21 21 22 23 22 23 23 23 23 23 23 23 23 24 24 24 24 23 23
20 20 20 20 20 20 20 20 20 20 19 19 19 20 20 20 20 20 20 21 21 21 21 21 21 21 22 23 22 22 22 23 23 24 24 24 23 23 24 24 24 24 24
21 21 21 21 21 21 21 21 21 20 20 20 20 20 20 20 20 21 21 21 22 22 22 22 22 22 22 22 23 23 22 23 23 24 24 25 25 24 25 25 25 25 26
22 22 22 22 22 22 22 22 21 21 21 21 21 21 21 21 22 22 22 22 22 22 22 22 22 22 22 22 22 23 23 23 24 25 25 26 26 25 26 26 25 26 26
23 23 23 23 22 23 23 23 22 22 22 22 22 22 23 23 23 23 23 23 23 23 22 22 22 22 22 22 22 23 23 24 24 25 25 25 26 26 26 26 27 27 28
24 24 24 23 23 23 23 23 22 23 23 23 23 23 23 23 24 24 24 24 23 23 23 23 23 23 23 23 23 23 24 24 25 26 26 27 27 27 28 28 28 28 29
25 25 24 24 24 24 24 24 23 23 24 24 24 24 24 24 24 24 24 24 24 24 24 24 24 24 24 24 24 24 24 24 25 26 26 27 27 28 28 29 29 29 29
26 27 26 26 25 25 25 25 25 25 25 25 25 25 25 25 25 25 25 25 25 25 25 25 25 25 25 25 25 25 26 26 26 26 26 27 27 28 28 29 30 30 30
Wind_Direction
278 280 277 276 276 276 275 275 272 273 273 272 272 270 272 266 264 264 261 258 259 260 260 263 265 267 265 261 261 261 259 259 261 261 260 259 260 260 260 261 261 261 262
279 278 277 278 280 281 279 278 276 274 275 275 273 270 271 269 264 265 267 267 264 263 264 267 266 266 264 264 264 262 262 262 261 260 260 257 259 259 263 263 264 263 265
280 281 281 280 279 278 277 277 276 276 275 275 275 269 269 271 269 268 269 271 271 270 269 269 268 270 267 266 265 264 265 265 263 261 258 258 261 262 263 262 263 264 264
283 285 285 283 280 277 275 276 276 277 278 278 277 275 277 278 276 275 274 272 272 271 269 269 271 273 272 269 266 266 268 268 268 263 261 260 261 262 262 261 262 263 264
284 285 284 283 283 281 280 279 278 278 279 279 278 279 280 281 279 279 278 276 275 273 270 267 268 270 271 271 269 267 266 265 267 266 267 265 263 265 266 265 265 265 266
284 284 285 286 286 285 284 282 280 281 282 282 280 280 281 282 281 279 278 277 273 271 269 266 266 267 268 269 269 267 265 266 267 268 267 266 265 265 265 266 265 266 267
286 284 287 287 287 287 286 284 283 283 283 282 281 280 279 279 279 279 277 274 272 270 270 267 266 266 267 268 269 268 268 269 269 268 268 269 269 267 266 266 266 266 267
286 285 287 287 289 291 289 286 284 283 282 281 281 280 279 278 278 278 276 273 272 272 272 270 269 267 268 267 268 269 270 271 271 270 272 271 271 270 268 268 268 268 268
291 289 288 288 288 290 291 289 287 283 282 281 280 280 279 277 276 274 273 271 271 272 272 273 271 268 268 268 268 271 273 271 271 273 274 273 271 270 269 270 270 270 270
292 290 289 290 291 291 291 289 286 284 284 283 282 280 279 277 277 274 272 272 272 272 272 271 270 269 270 270 268 269 270 270 270 271 272 273 273 272 271 270 270 270 269
292 290 288 288 289 291 292 290 288 287 286 285 284 282 280 278 278 277 275 274 274 274 272 270 270 269 271 270 268 268 268 268 270 271 272 273 274 273 272 271 270 269 268
290 288 287 286 286 287 289 289 289 288 288 286 283 281 280 279 279 278 277 276 276 275 273 271 272 270 269 268 267 266 267 270 271 272 274 275 276 275 274 271 269 268 267
288 288 285 285 285 287 288 288 288 288 288 286 284 282 280 279 280 280 279 278 278 276 274 274 274 272 269 268 268 267 267 270 272 273 275 276 276 276 274 271 269 267 267
286 287 286 284 286 288 288 287 287 288 288 287 285 283 282 281 280 280 280 279 278 278 276 273 273 273 271 270 270 270 270 270 271 272 273 273 274 273 273 272 269 267 267
284 286 286 285 286 288 288 288 288 288 288 288 287 286 285 283 281 280 280 280 279 279 277 274 273 271 271 271 270 269 270 270 270 271 271 271 271 271 272 271 269 268 268
283 285 286 285 287 287 287 287 286 286 286 287 287 285 284 283 280 281 281 280 279 279 278 277 276 274 272 272 271 270 271 271 271 271 272 271 271 269 270 272 270 269 269
282 282 284 285 286 286 286 286 287 287 287 286 285 285 285 285 283 282 282 282 281 281 279 278 278 276 274 273 273 273 272 272 271 272 272 271 270 270 271 271 270 270 270
280 281 282 284 286 286 285 286 287 289 287 285 284 284 286 287 285 284 283 282 281 281 280 279 279 278 276 274 274 274 272 272 272 272 272 271 270 270 271 271 271 272 271
279 279 280 284 285 285 284 286 288 288 286 286 285 285 287 287 287 286 284 283 282 282 281 281 280 280 279 276 275 274 272 272 272 272 275 274 272 270 270 271 272 272 271
278 279 279 282 283 284 285 286 287 286 285 285 285 285 285 286 286 287 286 284 283 283 282 282 282 281 281 279 277 275 273 271 271 272 275 275 274 273 272 272 272 271 271
276 278 279 281 282 283 285 287 285 285 284 285 285 284 284 285 286 287 287 285 284 282 282 281 282 282 281 280 277 275 274 271 270 271 274 275 275 274 272 273 272 270 270
274 277 279 281 282 283 285 286 285 284 284 284 284 284 285 285 286 286 288 287 284 282 281 281 282 283 282 281 278 276 274 272 271 271 273 275 275 274 273 273 272 271 270
275 276 277 279 280 282 283 284 285 284 284 285 284 285 284 285 285 286 288 288 284 283 281 281 283 283 283 282 279 278 276 274 273 273 273 275 276 276 275 274 273 271 271
274 275 276 277 279 281 283 284 284 285 284 285 285 284 284 284 285 285 286 287 286 282 280 281 281 282 283 284 282 279 277 276 274 274 273 275 276 277 277 276 275 273 273
274 274 275 277 278 280 282 283 283 285 285 285 284 283 283 283 284 284 284 285 285 283 281 280 280 281 282 283 284 282 280 278 277 276 275 276 277 277 278 277 277 275 274
273 273 274 275 276 278 280 281 282 284 285 285 284 283 282 282 283 283 283 283 283 282 280 280 280 281 282 283 284 284 282 279 278 278 278 279 279 279 278 278 276 276 275
Height
5858 5857 5857 5857 5856 5856 5855 5855 5855 5855 5854 5854 5853 5853 5853 5852 5852 5852 5852 5852 5852 5852 5852 5852 5852 5852 5851 5851 5851 5851 5851 5852 5852 5852 5852 5852 5852 5853 5853 5853 5853 5853 5853
5856 5855 5855 5855 5854 5854 5853 5853 5852 5852 5852 5851 5851 5851 5850 5850 5850 5849 5849 5849 5849 5849 5849 5849 5849 5848 5848 5848 5848 5848 5848 5848 5848 5848 5848 5848 5849 5849 5849 5850 5850 5849 5849
5854 5853 5853 5852 5852 5851 5851 5851 5850 5850 5850 5849 5849 5848 5848 5847 5847 5846 5846 5846 5846 5846 5845 5845 5845 5845 5845 5845 5844 5844 5844 5844 5844 5844 5845 5845 5845 5845 5845 5845 5845 5845 5845
5851 5851 5850 5850 5849 5849 5848 5848 5847 5847 5846 5846 5845 5845 5844 5844 5844 5843 5843 5842 5842 5842 5842 5842 5842 5841 5841 5841 5841 5841 5840 5841 5841 5841 5841 5841 5841 5841 5841 5841 5841 5841 5841
5849 5849 5848 5847 5847 5846 5845 5845 5844 5844 5843 5843 5842 5841 5841 5840 5840 5839 5839 5839 5838 5838 5838 5838 5838 5838 5838 5837 5837 5837 5837 5837 5837 5837 5837 5837 5837 5837 5837 5837 5837 5837 5836
5846 5846 5845 5844 5843 5843 5842 5842 5841 5840 5840 5839 5838 5838 5837 5836 5836 5835 5835 5835 5834 5834 5834 5834 5834 5834 5834 5834 5833 5833 5833 5833 5833 5833 5833 5833 5832 5832 5832 5832 5832 5832 5832
5844 5843 5842 5841 5840 5840 5839 5838 5837 5836 5836 5835 5835 5834 5833 5833 5832 5832 5831 5831 5830 5830 5830 5830 5830 5830 5830 5830 5830 5829 5829 5829 5829 5829 5828 5828 5828 5828 5828 5827 5827 5827 5827
5841 5840 5839 5838 5837 5836 5835 5834 5833 5832 5832 5831 5831 5830 5830 5829 5828 5828 5827 5827 5826 5826 5826 5826 5826 5826 5826 5826 5826 5825 5825 5825 5825 5824 5824 5824 5823 5823 5823 5823 5823 5822 5822
5837 5836 5835 5835 5834 5833 5832 5830 5829 5828 5828 5827 5827 5826 5826 5825 5824 5824 5823 5823 5822 5822 5822 5821 5821 5821 5821 5821 5821 5821 5821 5821 5820 5820 5819 5819 5819 5818 5818 5818 5817 5817 5817
5834 5833 5832 5831 5830 5829 5828 5826 5825 5824 5824 5823 5822 5822 5821 5821 5820 5820 5819 5818 5818 5817 5817 5817 5816 5816 5816 5816 5816 5816 5816 5816 5816 5815 5815 5814 5813 5813 5813 5812 5812 5812 5812
5831 5830 5829 5828 5826 5825 5824 5823 5821 5820 5820 5819 5818 5817 5817 5816 5815 5815 5814 5814 5813 5813 5812 5812 5811 5811 5811 5811 5811 5811 5811 5811 5811 5810 5810 5809 5808 5808 5807 5806 5806 5806 5806
5827 5826 5825 5824 5823 5821 5820 5819 5817 5816 5815 5815 5814 5813 5812 5811 5811 5810 5810 5809 5808 5808 5807 5806 5806 5806 5805 5805 5805 5806 5806 5806 5805 5805 5804 5804 5803 5802 5801 5801 5801 5801 5801
5823 5822 5821 5820 5819 5817 5816 5815 5813 5812 5811 5810 5809 5808 5808 5807 5806 5806 5805 5804 5804 5803 5802 5801 5801 5800 5800 5800 5800 5800 5800 5800 5800 5800 5799 5798 5797 5797 5796 5795 5795 5795 5795
5819 5818 5817 5816 5815 5813 5811 5810 5809 5808 5807 5806 5805 5804 5803 5802 5801 5801 5800 5800 5799 5797 5796 5796 5796 5795 5795 5794 5794 5794 5795 5795 5795 5794 5794 5793 5792 5791 5791 5790 5790 5790 5790
5814 5813 5812 5811 5810 5808 5807 5806 5805 5803 5802 5801 5800 5799 5798 5797 5796 5795 5795 5794 5794 5792 5791 5791 5790 5790 5789 5789 5789 5788 5788 5789 5788 5788 5787 5787 5786 5785 5785 5784 5784 5784 5784
5810 5809 5808 5807 5805 5804 5802 5801 5800 5798 5797 5796 5794 5793 5792 5791 5790 5789 5789 5788 5787 5787 5786 5785 5784 5783 5783 5783 5782 5782 5782 5782 5782 5781 5781 5780 5780 5779 5779 5779 5778 5778 5778
5805 5804 5803 5802 5800 5799 5797 5796 5795 5793 5792 5790 5789 5787 5786 5785 5784 5783 5783 5782 5781 5781 5780 5779 5778 5777 5776 5776 5776 5776 5775 5775 5775 5775 5774 5773 5773 5773 5773 5773 5772 5772 5772
5800 5799 5798 5796 5795 5794 5792 5791 5789 5788 5786 5785 5783 5782 5781 5779 5778 5777 5776 5776 5775 5774 5774 5773 5771 5770 5770 5770 5769 5769 5768 5768 5768 5767 5767 5766 5766 5766 5766 5766 5765 5765 5765
5794 5793 5792 5791 5790 5788 5787 5786 5784 5782 5780 5779 5778 5776 5775 5774 5773 5771 5770 5769 5768 5768 5767 5766 5765 5764 5763 5762 5762 5762 5761 5761 5761 5760 5760 5759 5759 5759 5759 5759 5758 5758 5758
5789 5788 5787 5786 5784 5783 5781 5780 5778 5776 5775 5773 5772 5770 5769 5768 5767 5765 5764 5763 5762 5761 5760 5760 5759 5757 5756 5755 5755 5754 5754 5754 5753 5753 5753 5752 5751 5751 5751 5751 5752 5752 5751
5783 5782 5781 5780 5779 5777 5775 5773 5772 5770 5769 5767 5766 5764 5763 5762 5760 5759 5758 5756 5755 5754 5753 5753 5752 5751 5750 5748 5748 5747 5747 5747 5746 5746 5746 5745 5744 5744 5744 5744 5744 5744 5744
5777 5776 5775 5774 5772 5771 5769 5767 5765 5764 5762 5761 5759 5758 5756 5755 5754 5752 5751 5749 5748 5747 5746 5745 5745 5744 5743 5742 5741 5741 5740 5740 5740 5740 5739 5738 5737 5737 5737 5737 5736 5736 5736
5770 5769 5768 5767 5765 5764 5762 5760 5759 5757 5755 5754 5753 5751 5750 5748 5747 5745 5744 5742 5741 5739 5739 5739 5738 5737 5736 5736 5735 5734 5733 5733 5733 5732 5731 5731 5730 5730 5729 5729 5728 5728 5728
5762 5762 5761 5759 5758 5757 5755 5753 5751 5750 5748 5747 5745 5744 5742 5741 5739 5738 5737 5735 5734 5733 5732 5731 5731 5730 5729 5728 5728 5727 5726 5726 5725 5724 5724 5723 5722 5722 5721 5720 5719 5719 5719
5755 5754 5753 5752 5751 5750 5748 5746 5744 5743 5741 5739 5738 5736 5735 5734 5732 5731 5730 5728 5727 5726 5725 5724 5723 5723 5722 5721 5720 5719 5719 5718 5718 5717 5716 5715 5714 5714 5713 5712 5711 5710 5709
5746 5746 5745 5744 5743 5742 5740 5739 5737 5735 5734 5732 5730 5729 5727 5726 5725 5723 5722 5721 5720 5719 5717 5717 5716 5715 5714 5713 5712 5712 5711 5710 5710 5709 5708 5707 5706 5705 5705 5703 5702 5701 5700